Tracking 22881 objects as of 19-Apr-2021
HD Live streaming from Space Station
objects crossing your sky now

COSMOS 2292

Track COSMOS 2292 now!
10-day predictions
COSMOS 2292 is classified as:


NORAD ID: 23278
Int'l Code: 1994-061A
Perigee: 402.2 km
Apogee: 1,704.5 km
Inclination: 83.0 °
Period: 106.1 minutes
Semi major axis: 7424 km
RCS: 2.958 m2 (large)
Launch date: September 27, 1994
Source: Commonwealth of Independent States (former USSR) (CIS)
Launch site: PLESETSK MISSILE AND SPACE COMPLEX (PKMTR)
aabbcc
Your satellite tracking list
Your tracking list is empty




NASA's NSSDC Master Catalog

Two Line Element Set (TLE):
1 23278U 94061A   21108.83085858  .00000538  00000-0  45426-4 0  9990
2 23278  82.9833 214.2672 0877037 345.5330  12.2086 13.57115305301202
Source of the keplerian elements: AFSPC